This is the latest recevied weather packets stored in our database for station/object KO6MEZ-13. If no packets are shown the sender has not sent any weather packets the latest 1 day(s).
| Time | Temp. | Humidity | Pressure | Rain* | Wind** | Luminosity | Snow |
|---|---|---|---|---|---|---|---|
| 1778010125 | 13.33° C | 79% | 1014.1 hPa | 0 mm | 0.45 m/s, 211° | 595 W/m² | - |
| 1778009824 | 13.33° C | 82% | 1014.1 hPa | 0 mm | 0.45 m/s, 0° | 540 W/m² | - |
| 1778009526 | 13.33° C | 83% | 1014.1 hPa | 0 mm | 0.45 m/s, 50° | 344 W/m² | - |
| 1778009226 | 13.33° C | 85% | 1014.1 hPa | 0 mm | 0.45 m/s, 203° | 264 W/m² | - |
| 1778008926 | 13.33° C | 85% | 1014.1 hPa | 0 mm | 0.45 m/s, 0° | 322 W/m² | - |
| 1778008625 | 12.78° C | 85% | 1014.1 hPa | 0 mm | 0.45 m/s, 237° | 309 W/m² | - |
| 1778008325 | 12.78° C | 83% | 1014.1 hPa | 0 mm | 0.45 m/s, 231° | 389 W/m² | - |
| 1778008025 | 12.78° C | 82% | 1014.1 hPa | 0 mm | 0 m/s | 325 W/m² | - |
| 1778007852 | 12.78° C | 84% | 1014.1 hPa | 0 mm | 0.45 m/s, 0° | 260 W/m² | - |
| 1778007425 | 12.78° C | 83% | 1014.1 hPa | 0 mm | 0.45 m/s, 230° | 231 W/m² | - |
| 1778007232 | 12.78° C | 86% | 1014.1 hPa | 0 mm | 0 m/s | 212 W/m² | - |
| 1778006951 | 12.78° C | 85% | 1013.9 hPa | 0 mm | 0 m/s | 186 W/m² | - |
| 1778006654 | 12.78° C | 84% | 1013.8 hPa | 0 mm | 0 m/s | 176 W/m² | - |
| 1778006226 | 12.78° C | 84% | 1013.8 hPa | 0 mm | 0 m/s | 165 W/m² | - |
| 1778005926 | 12.22° C | 85% | 1013.9 hPa | 0 mm | 0 m/s | 181 W/m² | - |
| 1778005753 | 12.22° C | 86% | 1013.8 hPa | 0 mm | 0 m/s | 246 W/m² | - |
| 1778005325 | 12.78° C | 85% | 1013.8 hPa | 0 mm | 0.45 m/s, 0° | 264 W/m² | - |
| 1778005025 | 12.22° C | 84% | 1013.7 hPa | 0 mm | 0 m/s | 317 W/m² | - |
| 1778004852 | 12.22° C | 86% | 1013.6 hPa | 0 mm | 0 m/s | 325 W/m² | - |
| 1778004425 | 12.22° C | 86% | 1013.6 hPa | 0 mm | 0 m/s | 268 W/m² | - |
| 1778004124 | 12.22° C | 87% | 1013.6 hPa | 0 mm | 0 m/s | 221 W/m² | - |
| 1778003825 | 11.67° C | 87% | 1013.7 hPa | 0 mm | 0 m/s | 234 W/m² | - |
| 1778003654 | 11.67° C | 88% | 1013.6 hPa | 0 mm | 0 m/s | 263 W/m² | - |
| 1778003226 | 11.67° C | 89% | 1013.6 hPa | 0 mm | 0 m/s | 224 W/m² | - |
| 1778002926 | 11.67° C | 89% | 1013.6 hPa | 0 mm | 0 m/s | 184 W/m² | - |
* Rain latest hour (hover to see other rain measurements)
** Current wind speed in m/s (hover to see current wind gust speed)